Location: Unspecified
(0.0000°N, 0.0000°E)
Time: 05:38:22
(UTC+00:00)

USA 72 - Pass Details

Date: 13 October 2024
Orbit: 2592 x 11654 km, 63.4° (Epoch: 10 November)

Event Time Altitude Azimuth Distance (km) Brightness Sun altitude
Rises 16:54:47 0° 335° (NNW) 16,468 11.5 12.7°
Reaches altitude 10° 17:10:20 10° 334° (NNW) 14,652 11.3 8.8°
Maximum altitude 18:05:20 67° 256° (WSW) 5,796 9.3 -4.8°
Drops below altitude 10° 18:25:47 10° 171° (S) 6,355 9.2 -9.8°
Sets 18:29:11 0° 167° (SSE) 7,027 9.4 -10.7°
